Weather in Dorohoi

Romania     47°57′04″N   26°23′56″E
temp.,
°C
wind,
m/s
gust,
m/s
humid.,
%
clouds,
%
prec.,
mm/h
press.,
hPa
HPBL,
m
18 april, sun
sun1800:00+5ene2283100 0.0 102028
03:00+4ne11898 0.0 102010
06:00+5ne118598 0.0 101954
09:00+7ne117446 0.0 1019384
12:00+11e235886 0.0 10181196
15:00+13ese2249100 0.1 10171797
18:00+11ssw3361100 0.1 1017355
21:00+9wnw0070100 0.1 101810
19 april, mon
mon1900:00+8sw2272100 0.0 101816
03:00+8wsw3677100 0.0 1018158
06:00+6w228595 0.0 101720
09:00+9w127681 0.0 1017160
12:00+12sse2262100 0.1 1016948
15:00+12sse226061 0.2 1015652
18:00+13ese2253100 0.0 10131172
21:00+10ene1165100 0.1 101313
20 april, tue
tue2000:00+9ne4787100 1.1 1012252
03:00+9nne3687100 1.7 1011234
06:00+8nne4885100 0.3 1010313
09:00+9nne477095 0.4 1011475
12:00+11n6650100 0.1 10111607
15:00+12nnw5748100 0.1 10101713
18:00+12nnw565299 0.1 10101615
21:00+8w226653 0.1 101212
21 april, wed
wed2100:00+7wnw227448 0.0 101314
03:00+6w227862 0.0 101310
06:00+5w127988 0.0 101410
09:00+10w236474 0.0 1015352
12:00+14wsw234934 0.1 10151575
15:00+15ssw224299 0.1 10142028
18:00+15sse235019 0.0 10141154
21:00+10ssw227999 0.8 101619
22 april, thu
thu2200:00+8wsw36787 0.1 101682
03:00+7w22765 0.1 101717
06:00+6wsw22784 0.0 101818
09:00+11wsw23625 0.0 1018284
12:00+16ssw23455 0.0 10181669
15:00+18s443796 0.0 10172226
18:00+17s454425 0.0 10161906
21:00+12sse22635 0.0 101617